CW5248 Weather Reports


Display with metric or nautical units.
time (UTC)temp
F
wind
direction
speed
MPH
gust
MPH
rain 1hr
in
rain 24hr
in
rain mn
in
humidity
%
barometer
mb
20200707194330 76 98 7.0 12.0 0.00 0.00 0.00 20 1021.5
20200707193334 75 279 1.0 14.0 0.00 0.00 0.00 17 1021.7
20200707192342 74 199 2.0 10.0 0.00 0.00 0.00 18 1021.7
20200707191332 73 271 5.0 13.0 0.00 0.00 0.00 20 1022.3
20200707190337 74 30 2.0 10.0 0.00 0.00 0.00 28 1022.4
20200707185342 75 304 7.0 14.0 0.00 0.00 0.00 17 1022.4
20200707184334 76 299 13.0 22.0 0.00 0.00 0.00 17 1022.0
20200707183343 77 302 3.0 14.0 0.00 0.00 0.00 16 1022.1
20200707182346 78 339 3.0 32.0 0.00 0.00 0.00 15 1022.1
20200707181334 82 287 7.0 11.0 0.00 0.00 0.00 14 1021.8
20200707180343 83 182 5.0 10.0 0.00 0.00 0.00 15 1022.3
20200707175328 83 117 5.0 14.0 0.00 0.00 0.00 15 1022.3
20200707174333 82 259 4.0 9.0 0.00 0.00 0.00 17 1022.4
20200707173341 81 238 4.0 10.0 0.00 0.00 0.00 21 1022.7
20200707172332 79 253 1.0 7.0 0.00 0.00 0.00 21 1022.7
20200707171339 79 250 3.0 8.0 0.00 0.00 0.00 20 1022.9
20200707170343 79 267 3.0 6.0 0.00 0.00 0.00 21 1023.0
20200707165327 78 105 3.0 8.0 0.00 0.00 0.00 20 1023.0
20200707164340 76 167 4.0 9.0 0.00 0.00 0.00 24 1023.0
20200707163345 75 5 3.0 6.0 0.00 0.00 0.00 24 1023.3
20200707162329 74 296 6.0 11.0 0.00 0.00 0.00 24 1023.3
20200707161339 74 42 0.0 4.0 0.00 0.00 0.00 25 1023.4
20200707160347 73 33 2.0 4.0 0.00 0.00 0.00 26 1023.6
20200707155331 72 205 2.0 4.0 0.00 0.00 0.00 27 1023.6
20200707154338 70 178 0.0 3.0 0.00 0.00 0.00 28 1023.7
20200707153328 69 202 2.0 4.0 0.00 0.00 0.00 31 1023.7
20200707152340 68 105 1.0 2.0 0.00 0.00 0.00 34 1023.7
20200707151326 67 115 1.0 3.0 0.00 0.00 0.00 31 1023.7
20200707150336 67 151 3.0 5.0 0.00 0.00 0.00 34 1023.8
20200707145329 66 184 4.0 7.0 0.00 0.00 0.00 34 1023.8
20200707144335 64 113 5.0 8.0 0.00 0.00 0.00 36 1024.2
20200707143343 63 126 2.0 3.0 0.00 0.00 0.00 39 1024.3
20200707142330 63 96 2.0 3.0 0.00 0.00 0.00 42 1024.3
20200707141341 63 96 0.0 5.0 0.00 0.00 0.00 40 1023.9
20200707140329 61 105 1.0 7.0 0.00 0.00 0.00 40 1023.7
20200707135333 59 194 1.0 9.0 0.00 0.00 0.00 42 1023.7
20200707134339 57 55 2.0 4.0 0.00 0.00 0.00 52 1023.7
20200707133349 56 10 3.0 4.0 0.00 0.00 0.00 48 1023.6
20200707132333 56 299 0.0 4.0 0.00 0.00 0.00 52 1023.6
20200707131340 55 49 3.0 5.0 0.00 0.00 0.00 52 1023.7
20200707130346 54 38 2.0 7.0 0.00 0.00 0.00 53 1023.6
20200707125334 54 67 2.0 8.0 0.00 0.00 0.00 51 1023.6
20200707124341 53 57 5.0 7.0 0.00 0.00 0.00 50 1023.6
20200707123347 53 69 3.0 7.0 0.00 0.00 0.00 54 1023.6
20200707122332 53 153 2.0 6.0 0.00 0.00 0.00 54 1023.6
20200707121343 53 67 3.0 5.0 0.00 0.00 0.00 52 1023.7
20200707120349 53 67 3.0 4.0 0.00 0.00 0.00 53 1023.6
20200707115334 52 92 4.0 7.0 0.00 0.00 0.00 54 1023.6
20200707114345 52 83 1.0 4.0 0.00 0.00 0.00 55 1023.2
20200707113338 53 81 1.0 3.0 0.00 0.00 0.00 53 1023.1
20200707112342 52 59 3.0 6.0 0.00 0.00 0.00 54 1023.1
20200707111328 52 121 2.0 5.0 0.00 0.00 0.00 57 1023.1
20200707110337 52 347 1.0 3.0 0.00 0.00 0.00 57 1023.0
20200707105346 52 311 1.0 5.0 0.00 0.00 0.00 59 1023.0
20200707104333 52 103 2.0 5.0 0.00 0.00 0.00 59 1023.0
20200707103343 52 130 1.0 7.0 0.00 0.00 0.00 60 1023.0
20200707102330 52 57 1.0 7.0 0.00 0.00 0.00 58 1023.0
20200707101341 52 64 2.0 4.0 0.00 0.00 0.00 59 1023.0
20200707100347 53 64 2.0 5.0 0.00 0.00 0.00 59 1023.0
20200707095333 53 118 1.0 4.0 0.00 0.00 0.00 58 1023.0
20200707094345 53 55 4.0 7.0 0.00 0.00 0.00 56 1023.0
20200707093334 54 72 3.0 4.0 0.00 0.00 0.00 56 1023.2
20200707092339 54 71 2.0 4.0 0.00 0.00 0.00 58 1023.2
20200707091345 54 57 5.0 7.0 0.00 0.00 0.00 55 1023.3
20200707090334 53 47 5.0 7.0 0.00 0.00 0.00 57 1023.6
20200707085338 53 64 0.0 4.0 0.00 0.00 0.00 61 1023.6
20200707084345 53 66 2.0 5.0 0.00 0.00 0.00 61 1023.6
20200707083331 53 59 2.0 4.0 0.00 0.00 0.00 60 1023.7
20200707082343 54 59 0.0 4.0 0.00 0.00 0.00 59 1023.7
20200707081333 54 65 0.0 0.0 0.00 0.00 0.00 58 1023.8
20200707080339 55 65 1.0 2.0 0.00 0.00 0.00 58 1023.9
20200707075343 56 65 1.0 2.0 0.00 0.00 0.00 57 1023.9
20200707074333 56 65 0.0 0.0 0.00 0.00 0.00 57 1024.3
20200707073338 57 65 0.0 4.0 0.00 0.00 0.00 56 1024.3
20200707072342 57 57 3.0 5.0 0.00 0.00 0.00 54 1024.3
20200707071349 57 72 5.0 7.0 0.00 0.00 0.00 54 1024.4
20200707070339 57 80 3.0 6.0 0.00 0.00 0.00 54 1024.4
20200707065342 58 96 3.0 5.0 0.00 0.00 0.00 54 1024.4
20200707064330 59 121 0.0 0.0 0.00 0.00 0.00 52 1024.4
20200707063336 60 152 0.0 0.0 0.00 0.00 0.00 49 1024.6
20200707062329 61 152 0.0 3.0 0.00 0.00 0.00 48 1024.6
20200707061339 61 134 1.0 4.0 0.00 0.00 0.00 46 1024.7
20200707060349 62 142 1.0 4.0 0.00 0.00 0.00 45 1024.7
20200707055336 62 153 2.0 5.0 0.00 0.00 0.00 44 1024.7
20200707054341 62 130 2.0 6.0 0.00 0.00 0.00 43 1025.0
20200707053327 62 109 4.0 9.0 0.00 0.00 0.00 43 1025.0
20200707052335 62 134 3.0 8.0 0.00 0.00 0.00 42 1025.0
20200707051346 62 140 5.0 11.0 0.00 0.00 0.00 42 1025.0
20200707050332 62 107 4.0 12.0 0.00 0.00 0.00 42 1025.0
20200707045335 61 83 4.0 9.0 0.00 0.00 0.00 43 1025.0
20200707044344 60 111 4.0 9.0 0.00 0.00 0.00 46 1025.0
20200707043332 60 140 0.0 2.0 0.00 0.00 0.00 45 1024.7
20200707042336 61 93 0.0 5.0 0.00 0.00 0.00 44 1024.7
20200707041344 62 66 2.0 4.0 0.00 0.00 0.00 41 1024.7
20200707040329 64 102 1.0 2.0 0.00 0.00 0.00 40 1024.8
20200707035339 65 126 0.0 5.0 0.00 0.00 0.00 37 1024.8
20200707034349 66 126 2.0 7.0 0.00 0.00 0.00 34 1024.5
20200707033333 66 128 2.0 9.0 0.00 0.00 0.00 32 1024.4
20200707032337 66 96 3.0 8.0 0.00 0.00 0.00 30 1024.4
20200707031347 67 109 2.0 6.0 0.00 0.00 0.00 30 1024.4
20200707030332 67 98 3.0 8.0 0.00 0.00 0.00 31 1024.1
20200707025336 67 113 5.0 9.0 0.00 0.00 0.00 29 1024.1
20200707024342 68 113 5.0 11.0 0.00 0.00 0.00 28 1023.8
20200707023331 68 130 4.0 13.0 0.00 0.00 0.00 29 1023.7
20200707022334 69 121 5.0 8.0 0.00 0.00 0.00 27 1023.7
20200707021340 69 145 3.0 13.0 0.00 0.00 0.00 28 1023.7
20200707020346 69 88 5.0 11.0 0.00 0.00 0.00 27 1023.8
20200707015333 70 92 7.0 11.0 0.00 0.00 0.00 27 1023.8
20200707014340 71 106 8.0 14.0 0.00 0.00 0.00 29 1024.1
20200707013346 72 154 1.0 9.0 0.00 0.00 0.00 33 1023.9
20200707012330 73 155 5.0 10.0 0.00 0.03 0.00 26 1023.9
20200707011344 75 167 7.0 15.0 0.00 0.03 0.00 24 1023.7
20200707010329 76 149 5.0 19.0 0.00 0.03 0.00 24 1023.6
20200707005335 77 170 11.0 17.0 0.00 0.03 0.00 21 1023.6
20200707004341 77 171 9.0 15.0 0.00 0.03 0.00 22 1023.6
20200707003331 77 105 6.0 14.0 0.00 0.03 0.00 22 1023.6
20200707002336 77 85 8.0 14.0 0.00 0.11 0.00 22 1023.6
20200707001341 77 123 7.0 10.0 0.00 0.11 0.00 23 1023.7
20200707000330 75 126 6.0 12.0 0.00 0.11 0.00 24 1023.7
20200706235335 74 126 3.0 8.0 0.00 0.11 0.00 27 1023.7
20200706234341 73 107 3.0 4.0 0.00 0.11 0.00 28 1024.4
20200706233347 74 252 1.0 5.0 0.00 0.11 0.00 25 1024.4
20200706232335 74 177 2.0 8.0 0.00 0.14 0.00 25 1024.4
20200706231341 75 156 5.0 9.0 0.00 0.14 0.00 25 1024.7
20200706230327 76 188 4.0 9.0 0.00 0.14 0.00 23 1024.5
20200706225334 77 133 5.0 14.0 0.00 0.14 0.00 22 1024.5
20200706224344 75 19 7.0 13.0 0.00 0.14 0.00 23 1024.4
20200706223330 72 180 4.0 16.0 0.00 0.14 0.00 28 1024.4
20200706222334 68 47 5.0 11.0 0.00 0.14 0.00 34 1024.4
20200706221343 66 136 9.0 15.0 0.00 0.14 0.00 39 1025.0
20200706220335 70 100 12.0 33.0 0.00 0.14 0.00 33 1025.7
20200706215340 72 180 3.0 12.0 0.00 0.14 0.00 26 1025.7
20200706214330 73 130 10.0 19.0 0.00 0.14 0.00 24 1025.0
20200706213335 73 121 7.0 16.0 0.00 0.14 0.00 23 1024.5
20200706212343 74 164 6.0 8.0 0.00 0.14 0.00 23 1024.5
20200706211329 75 111 5.0 10.0 0.00 0.14 0.00 22 1024.4
20200706210338 76 198 3.0 9.0 0.00 0.14 0.00 19 1024.4
20200706205343 77 32 3.0 5.0 0.00 0.14 0.00 19 1024.4
20200706204332 77 142 2.0 12.0 0.00 0.14 0.00 21 1024.3
20200706203337 79 153 5.0 15.0 0.00 0.14 0.00 19 1024.0
20200706202340 81 103 8.0 15.0 0.00 0.14 0.00 18 1024.0
20200706201326 82 207 6.0 12.0 0.00 0.14 0.00 18 1024.0
20200706200338 82 217 8.0 13.0 0.00 0.14 0.00 19 1024.3
20200706195341 82 219 6.0 11.0 0.00 0.14 0.00 22 1024.3